Starlink 31246

operational
NORAD ID: 58835 Int'l Des: 2024-017 Owner: SPXS Country: US Constellation: starlink
LEOCIRCULAR

关于 Starlink 31246

正在加载描述...

实时位置

正在加载3D地球...

即将过境

高度历史

Altitude vs Time

uPlot chart will show altitude changes over time

两行轨道根数

1 58835U 24017K 25305.64779881 -.00006196 00000-0 -19734-3 0 9999
2 58835 53.1599 78.9721 0001224 90.6113 269.5028 15.30183497100459
Epoch: Nov 1, 2025 • Age: 6 hours

当前状态

高度 476.6 km
速度 7.63 km/s
星下点 31.16°N, 93.19°E
发射日期 Jan 24, 2024
运行时间 1.7 years
类型 internet

技术详情

分类 Payload
质量 730.00 kg
干质量 700.00 kg
总质量 730.00 kg
长度 0.30 m
直径 4.10 m
跨度 29.00 m
形状 Box + pan
制造商 SPXS
平台类型 Starlink V2M
阶段状态 In Orbit
所有者/国家 SPXS/US

大型星座

Loading constellations...